Location: Newark
(48.2308°N, 120.8549°W)
Time: 17:27:49
(UTC+00:00)

deb Explorer IX - Visible Passes

Search period start: 17 May 2021 00:00
Search period end: 27 May 2021 00:00
Orbit: 541 x 1098 km, 38.8° (Epoch: 16 May)

Date Brightness Start Highest point End Pass type
(mag) Time Alt. Az. Time Alt. Az. Time Alt. Az.
17 May ? 05:26:22 10° WSW 05:32:29 35° S 05:35:52 21° SE visible
17 May ? 07:13:19 10° WSW 07:17:08 26° SW 07:17:08 26° SW visible
18 May ? 05:02:22 10° WSW 05:08:37 36° S 05:13:20 14° ESE visible
18 May ? 06:49:18 10° WSW 06:54:35 31° SSW 06:54:35 31° SSW visible
19 May ? 04:38:22 10° WSW 04:44:44 36° S 04:50:32 10° ESE visible
19 May ? 06:25:17 10° WSW 06:31:09 32° SSW 06:31:54 31° S visible
20 May ? 04:14:22 10° WSW 04:20:50 37° S 04:26:47 10° ESE visible
20 May ? 06:01:17 10° WSW 06:07:17 32° SSW 06:09:11 27° SSE visible
20 May ? 07:49:28 10° WSW 07:50:24 12° WSW 07:50:24 12° WSW visible
21 May ? 05:37:16 10° WSW 05:43:25 33° SSW 05:46:24 23° SSE visible
21 May ? 07:25:24 10° WSW 07:27:38 15° SW 07:27:38 15° SW visible
22 May ? 05:13:16 10° WSW 05:19:31 34° SSW 05:23:37 18° SE visible
22 May ? 07:01:20 10° WSW 07:04:51 17° SW 07:04:51 17° SW visible
23 May ? 04:49:16 10° WSW 04:55:37 34° SSW 05:00:49 13° SE visible
23 May ? 06:37:17 10° WSW 06:41:40 18° SSW 06:42:02 18° SSW visible
24 May ? 04:25:17 10° WSW 04:31:43 35° SSW 04:37:42 10° SE visible
24 May ? 06:13:14 10° WSW 06:17:47 19° SSW 06:19:14 17° SSW visible
25 May ? 05:49:12 10° WSW 05:53:54 19° SSW 05:56:26 16° S visible
26 May ? 05:25:11 10° WSW 05:30:00 19° SSW 05:33:39 13° S visible
